Location: *
(46.4000°N, 12.6667°E)
Time: 14:14:54
(UTC+00:00)

X-37B - Pass Details

Date: 08 December 2021
Orbit: 334 x 337 km, 45.0° (Epoch: 11 January)

Event Time Altitude Azimuth Distance (km) Brightness Sun altitude
Rises 15:59:55 0° 204° (SSW) 2,093 5.2 -6.4°
Reaches altitude 10° 16:02:58 10° 167° (SSE) 1,261 3.4 -6.9°
Maximum altitude 16:03:56 11° 147° (SSE) 1,192 3.0 -7.0°
Drops below altitude 10° 16:04:54 10° 127° (SE) 1,263 2.9 -7.2°
Enters shadow 16:06:26 - 103° (ESE) 1,610 3.2 -7.4°
